Location: Marshall
(39.8477°N, 87.1868°W)
Time: 02:58:16
(UTC+00:00)

Envisat - Pass Details

Date: 10 May 2026
Orbit: 761 x 763 km, 98.4° (Epoch: 9 June)

Event Time Altitude Azimuth Distance (km) Brightness Sun altitude
Rises 07:07:41 0° 33° (NNE) 3,230 7.4 -29.4°
Reaches altitude 10° 07:11:02 10° 56° (ENE) 2,298 6.1 -29.1°
Maximum altitude 07:13:53 15° 91° (E) 1,964 5.3 -28.9°
Enters shadow 07:15:24 13° 111° (ESE) 2,060 5.2 -28.8°
